This is the latest recevied weather packets stored in our database for station/object OE3MNS-12. If no packets are shown the sender has not sent any weather packets the latest 10 day(s).
| Time | Temp. | Humidity | Pressure | Rain* | Wind** | Luminosity | Snow |
|---|---|---|---|---|---|---|---|
| 1778151318 | 18.89° C | 45% | 1014 hPa | 0 mm | - | 270 W/m² | - |
| 1778150720 | 18.89° C | 46% | 1014 hPa | 0 mm | - | 222 W/m² | - |
| 1778149520 | 18.89° C | 46% | 1014.3 hPa | 0 mm | - | 293 W/m² | - |
| 1778148921 | 18.33° C | 49% | 1014.3 hPa | 0 mm | - | 274 W/m² | - |
| 1778147141 | 18.33° C | 48% | 1014.2 hPa | 0 mm | - | 320 W/m² | - |
| 1778145919 | 18.33° C | 47% | 1014.2 hPa | 0 mm | - | 539 W/m² | - |
| 1778144141 | 17.22° C | 51% | 1013.9 hPa | 0 mm | - | 513 W/m² | - |
| 1778136320 | 15.56° C | 59% | 1013.2 hPa | 0 mm | - | 228 W/m² | - |
| 1778134543 | 13.89° C | 63% | 1013.1 hPa | 0 mm | - | 104 W/m² | - |
| 1778129118 | 13.33° C | 66% | 1012.5 hPa | 0 mm | - | 50 W/m² | - |
| 1778127319 | 13.33° C | 65% | 1012 hPa | 0 mm | - | 24 W/m² | - |
| 1778126121 | 13.33° C | 65% | 1011.8 hPa | 0 mm | - | 10 W/m² | - |
| 1778120417 | 14.44° C | 64% | 1011 hPa | 0 mm | - | 0 W/m² | - |
| 1778119266 | 14.44° C | 65% | 1010.8 hPa | 0 mm | - | 0 W/m² | - |
| 1778116220 | 15° C | 67% | 1010.4 hPa | 0 mm | - | 0 W/m² | - |
| 1778115617 | 15° C | 67% | 1010.2 hPa | 0 mm | - | 0 W/m² | - |
| 1778114421 | 15° C | 66% | 1010.2 hPa | 0 mm | - | 0 W/m² | - |
| 1778112620 | 15.56° C | 66% | 1009.9 hPa | 0 mm | - | 0 W/m² | - |
| 1778103617 | 17.78° C | 57% | 1007.2 hPa | 0 mm | - | 0 W/m² | - |
| 1778103020 | 18.33° C | 55% | 1007 hPa | 0 mm | - | 0 W/m² | - |
| 1778100018 | 18.89° C | 51% | 1005.9 hPa | 0 mm | - | 0 W/m² | - |
| 1778094620 | 20.56° C | 46% | 1004.7 hPa | 0 mm | - | 0 W/m² | - |
| 1778088020 | 23.33° C | 41% | 1003.9 hPa | 0 mm | - | 29 W/m² | - |
| 1778076617 | 27.78° C | 31% | 1004.3 hPa | 0 mm | - | 358 W/m² | - |
| 1778076022 | 27.22° C | 31% | 1004.3 hPa | 0 mm | - | 334 W/m² | - |
* Rain latest hour (hover to see other rain measurements)
** Current wind speed in m/s (hover to see current wind gust speed)